Regional Weather Roundup
Issued by NWS

Home | Current Version | Previous Version | Text Only | Print | Product List | Glossary On
Versions: 1 2 3 4 5 6 7 8 9 10 11 12 13 14 15 16 17 18 19 20 21 22 23 24 25 26 27 28 29 30 31 32 33 34 35 36 37 38 39 40 41 42 43 44 45 46 47 48 49 50
000
ASUS43 KIND 061009
RWRIN

WEATHER ROUNDUP FOR INDIANA
NATIONAL WEATHER SERVICE INDIANAPOLIS IN
600 AM EDT WED MAY 06 2015

NOTE: "FAIR" INDICATES FEW OR NO CLOUDS BELOW 12,000 FEET WITH NO
SIGNIFICANT WEATHER AND/OR OBSTRUCTIONS TO VISIBILITY.

* - STATION DOES NOT REPORT WEATHER SUCH AS PRECIPITATION OR FOG.

+ - STATION NOT QUALITY CONTROLLED BY THE NATIONAL WEATHER SERVICE.
    USE DATA WITH CAUTION...ESPECIALLY DEWPOINT AND RELATIVE
    HUMIDITY OBSERVATIONS.

INZ001>003-010>013-019-020-061100-
NORTHWEST INDIANA

CITY           SKY/WX    TMP DP  RH WIND       PRES   REMARKS
GARY /AIRPORT/ FOG       50 N/A N/A CALM      30.18F VSB 1/4
KNOX *+        CLOUDY    54  48  82 E5        30.18R
LA PORTE +     CLOUDY    58  58 100 E9        30.19S FOG
MICHIGAN CITY+ CLOUDY    55  55 100 SE5       30.19S FOG
MONTICELLO +   CLOUDY    57  56  99 E3        30.16S FOG
RENSSELAER +   FOG       57  57 100 E6        30.17  VSB 1/4
VALPARAISO     CLOUDY    56  55  97 E6        30.19R FOG

$$

LMZ046-743>745-061100-
SOUTHERN LAKE MICHIGAN

STATION/POSITION TIME  TEMP    WIND        PRES    WAVE
                       AIR SEA DIR/SP/G            HT
                 (UTC) (F)     (DEG/KT/KT) (MB)    (FT)
BURNS HARBOR     1000   53      70/  6/  8 1022.4S
MICHIGAN CITY    1000   57      90/  5/  7   N/A
5NW MICH CITY    1000   53 51  110/  4/  6   N/A     1

$$

INZ004-005-014>016-021>024-061100-
NORTH CENTRAL INDIANA

CITY           SKY/WX    TMP DP  RH WIND       PRES   REMARKS
GOSHEN         CLOUDY    54  52  93 E9        30.20S FOG
LOGANSPORT +   CLEAR     52  50  93 E7        30.18S FOG
PERU/GRISSOM   CLEAR     53  52  96 SE6       30.17S FOG
ROCHESTER +    CLOUDY    55  55 100 E7        30.19S FOG
SOUTH BEND     CLOUDY    55  53  93 E7        30.20F FOG
WARSAW +       FOG       52  52 100 E7        30.20S VSB 1

$$

INZ006>009-017-018-025>027-061100-
NORTHEAST INDIANA

CITY           SKY/WX    TMP DP  RH WIND       PRES   REMARKS
ANGOLA *+      CLOUDY    52  39  62 E6        30.21F VSB 1/2
AUBURN +       FOG       52  50  93 E5        30.22S VSB 1/4
FORT WAYNE     FOG       52  52 100 E8        30.21S VSB 1/4
HUNTINGTON +   FOG       53  52  97 E5        30.20S VSB 1/4

$$

INZ028-029-035-036-043>045-051>053-061100-
WEST CENTRAL INDIANA

CITY           SKY/WX    TMP DP  RH WIND       PRES   REMARKS
CRAWFORDSVL +  CLEAR     55  49  78 CALM      30.16S
GREENCASTLE +  CLEAR     59  48  67 CALM      30.18S
LAFAYETTE      CLEAR     57  56  96 NE5       30.16S FOG
TERRE HAUTE    CLEAR     56  53  90 CALM      30.16S

$$

INZ030>032-037>040-046>048-054>057-064-065-061100-
CENTRAL INDIANA

CITY           SKY/WX    TMP DP  RH WIND       PRES   REMARKS
CP ATTERBURY + CLEAR     52  52 100 CALM      30.19R
FRANKFORT +    CLEAR     56  56 100 E3        30.19R FOG
INDIANAPOLIS   PTCLDY    62  53  72 SE5       30.16S
-EAGLE CREEK   CLEAR     58  54  86 CALM      30.17S
KOKOMO *+      CLEAR     54  52  94 SE7       30.18S
MARION +       CLEAR     52  51  97 E3        30.19S FOG
MT COMFORT *+  CLEAR     55 N/A N/A CALM      30.19S
SHELBYVILLE    CLEAR     59  53  80 SE3       30.18S
ZIONSVILLE +   CLEAR     58  54  86 CALM      30.18S

$$

INZ033-034-041-042-049-050-058-059-061100-
EAST CENTRAL INDIANA

CITY           SKY/WX    TMP DP  RH WIND       PRES   REMARKS
MUNCIE         CLEAR     54  52  93 E5        30.19S FOG

$$

INZ060-061-067>069-081>083-085>088-061100-
SOUTHWEST INDIANA

CITY           SKY/WX    TMP DP  RH WIND       PRES   REMARKS
EVANSVILLE     CLEAR     58  55  90 CALM      30.17S FOG
HUNTINGBURG *+ CLEAR     57  52  82 CALM      30.18S
WASHINGTON +   CLEAR     58  51  76 CALM      30.16S

$$

INZ062-063-066-070>080-084-089>092-061100-
SOUTH CENTRAL AND SOUTHEAST INDIANA

CITY           SKY/WX    TMP DP  RH WIND       PRES   REMARKS
BLOOMINGTON    CLEAR     54  52  93 CALM      30.18S
MADISON *+     CLEAR     55  52  88 CALM      30.21S
NORTH VERNON + CLEAR     54  54 100 CALM      30.20S
SEYMOUR +      CLEAR     55  54  94 CALM      30.18S

$$



USA.gov is the U.S. government's official web portal to all federal, state and local government web resources and services.